The Dalles, WA

12:36 AM PDT on July 21, 2019 (GMT -0700)
Columbia Gorge Regional-The Dalles

Weather History for KDLS - May, 2019

Change the Weather History Date:

Wednesday, May 15, 2019

  Actual Average Record
Temperature  
Mean Temperature 54 °F -  
Max Temperature 63 °F 73 °F 93 °F (2006)
Min Temperature 44 °F 48 °F 36 °F (1964)
Degree Days  
Heating Degree Days 12    
Growing Degree Days 4 (Base 50)    
Moisture  
Dew Point 48 °F    
Average Humidity 79    
Maximum Humidity 93    
Minimum Humidity 65    
Precipitation  
Precipitation 0.01 in - - ()
Sea Level Pressure  
Sea Level Pressure 29.77 in    
Wind  
Wind Speed 2 mph (NNW)    
Max Wind Speed 7 mph    
Max Gust Speed -    
Visibility 10 miles    
Events Rain    
Averages and records for this station are not official NWS values.
T = Trace of Precipitation, MM = Missing Value Source: NWS Daily Summary

Daily Weather History Graph

Daily Weather History Graph

Search for Another Location

Airport or City:

Astronomy

May. 15, 2019 Rise Set
Actual Time 5:33 AM PDT 8:28 PM PDT
Civil Twilight 4:59 AM PDT 9:03 PM PDT
Nautical Twilight 4:14 AM PDT 9:48 PM PDT
Astronomical Twilight 3:22 AM PDT 10:41 PM PDT
Moon 4:51 PM PDT (5/15) 4:18 AM PDT (5/15)
Length of Visible Light 16h 04m
Length of Day
14h 55m
Waxing Gibbous, 88% of the Moon is Illuminated
May 15
Waxing Gibbous
May 18
Full
May 26
Last Quarter
Jun 3
New
Jun 9
First Quarter

Hourly Weather History & Observations

Time (PDT) Temp. Windchill Dew Point Humidity Pressure Visibility Wind Dir Wind Speed Gust Speed Precip Events Conditions
12:53 AM 48.9 °F - 44.1 °F 83% 29.98 in 10.0 mi Calm Calm - N/A   Clear
1:53 AM 48.9 °F - 44.1 °F 83% 29.97 in 10.0 mi East 4.6 mph - N/A   Clear
2:53 AM 46.0 °F 44.8 °F 43.0 °F 89% 29.96 in 10.0 mi North 3.5 mph - N/A   Clear
3:53 AM 44.1 °F - 42.1 °F 93% 29.94 in 10.0 mi Calm Calm - N/A   Clear
4:53 AM 45.0 °F 43.5 °F 43.0 °F 93% 29.92 in 10.0 mi ENE 3.5 mph - N/A   Clear
5:53 AM 46.0 °F 43.9 °F 43.0 °F 89% 29.92 in 10.0 mi ESE 4.6 mph - N/A   Clear
6:53 AM 48.0 °F - 44.1 °F 86% 29.91 in 10.0 mi Calm Calm - N/A   Partly Cloudy
7:53 AM 50.0 °F - 45.0 °F 83% 29.89 in 10.0 mi Calm Calm - N/A   Mostly Cloudy
8:53 AM 52.0 °F - 45.0 °F 77% 29.87 in 10.0 mi Calm Calm - N/A   Overcast
9:53 AM 52.0 °F - 46.9 °F 83% 29.86 in 10.0 mi SSW 3.5 mph - 0.00 in Rain Light Rain
10:53 AM 54.0 °F - 46.9 °F 77% 29.83 in 10.0 mi West 3.5 mph - 0.00 in Rain Light Rain
11:53 AM 55.9 °F - 48.0 °F 75% 29.82 in 10.0 mi Calm Calm - 0.00 in   Overcast
12:06 PM 55.0 °F - 48.0 °F 77% 29.81 in 10.0 mi Calm Calm - N/A   Overcast
12:31 PM 55.0 °F - 48.9 °F 80% 29.79 in 10.0 mi NW 4.6 mph - 0.00 in Rain Light Rain
12:53 PM 57.0 °F - 48.9 °F 74% 29.79 in 10.0 mi Variable 4.6 mph - 0.00 in   Overcast
1:53 PM 57.9 °F - 50.0 °F 75% 29.76 in 10.0 mi Calm Calm - 0.01 in   Overcast
2:53 PM 60.1 °F - 48.9 °F 67% 29.73 in 10.0 mi NNW 4.6 mph - N/A   Overcast
3:53 PM 59.0 °F - 51.1 °F 75% 29.71 in 10.0 mi NNW 3.5 mph - 0.00 in Rain Light Rain
4:53 PM 60.1 °F - 50.0 °F 69% 29.68 in 10.0 mi Calm Calm - 0.00 in   Mostly Cloudy
5:20 PM 61.0 °F - 51.1 °F 70% 29.67 in 10.0 mi NNE 3.5 mph - N/A   Overcast
5:46 PM 63.0 °F - 51.1 °F 65% 29.66 in 10.0 mi Calm Calm - N/A   Mostly Cloudy
5:53 PM 62.1 °F - 51.1 °F 67% 29.66 in 10.0 mi Variable 3.5 mph - N/A   Mostly Cloudy
6:53 PM 60.1 °F - 52.0 °F 75% 29.65 in 10.0 mi NW 5.8 mph - 0.00 in Rain Light Rain
7:53 PM 59.0 °F - 53.1 °F 81% 29.63 in 10.0 mi NW 3.5 mph - 0.00 in   Overcast
8:17 PM 59.0 °F - 53.1 °F 81% 29.62 in 10.0 mi NNW 3.5 mph - N/A   Overcast
8:53 PM 57.9 °F - 51.1 °F 78% 29.63 in 10.0 mi NW 5.8 mph - N/A   Overcast
9:53 PM 57.9 °F - 51.1 °F 78% 29.63 in 10.0 mi NW 3.5 mph - N/A   Overcast
10:53 PM 57.9 °F - 52.0 °F 81% 29.62 in 10.0 mi NW 4.6 mph - N/A   Overcast
11:02 PM 57.9 °F - 52.0 °F 81% 29.62 in 10.0 mi NW 6.9 mph - N/A   Overcast
11:20 PM 57.0 °F - 52.0 °F 83% 29.62 in 10.0 mi NW 3.5 mph - N/A   Overcast
11:53 PM 57.0 °F - 52.0 °F 83% 29.61 in 10.0 mi NNW 3.5 mph - N/A   Overcast